2019-032E (44314 NORAD) Tracking and Keplerian Element Data

This shows tracking and keplerian element data for the satellite.

Feedback or suggestion? Click here.




ElementValue
Catalog44314
Name2019-032E
Epoch Orbit450
Epoch Day186.17444879
Epoch Year2019
RAAN143.3734
Inclination44.985
Eccentricity0.0013633
Argument of Perigee108.8455
Mean Anonmoly251.3909
Mean Motion15.00552403
Decay Rate-7.1E-07
L11 44314U 19032E 19186.17444879 -.00000071 00000-0 12436-4 0 9999
L22 44314 44.9850 143.3734 0013633 108.8455 251.3909 15.00552403 4503

Live tracking and technical data element details for 2019-032E (NORAD 44314). 2019-032E can be tracked NOW for your location showing map with azimuth and elevation plus other details from your city location.

Track the satellite on the map from your city or location and see movement details for azimuth, elevation, latitude, longitude, range, height, and movement on the map or in text.







IsCatalogInMostPopularTable: catalog: 44314, numindb: 11
Update: records affected: 1



GetName: 44314 2019-032E

Hit Count: updated at: Fri, 19 Jul 2019 08:04:16 GMT